Temp
21 21 21 21 21 21 21 21 21 21 21 20 20 20 20 20 20 20 20 20 19 18 18 18 17 17 17 16 16 16 16 16 16 16 16 16 16 16 16 16 16 16 15 15 15 15 15 15 14 14 14 14 14 14 14 14 14 14 14 14 14 14 14 14 14 13 14 15 14 15 15 15 15 15 16 16 16 16 16 16 16 16 17 17 17
20 21 20 20 20 21 21 20 20 21 20 20 20 20 20 20 20 20 20 19 19 18 18 18 17 17 17 17 16 16 16 16 16 16 16 16 16 16 16 16 16 16 15 15 15 15 14 15 15 14 14 14 14 14 14 15 15 15 15 14 14 14 14 14 14 13 13 14 14 14 14 14 15 15 15 15 15 15 15 15 15 16 16 16 16
20 20 20 20 20 20 20 20 20 20 20 20 20 20 20 19 19 19 20 19 19 18 18 18 18 17 17 17 17 17 16 16 16 16 16 16 16 16 16 16 16 16 15 15 15 15 14 14 14 14 14 13 13 14 14 14 14 15 15 15 14 14 14 14 14 13 13 13 14 14 14 14 14 15 15 15 15 15 15 15 15 15 15 16 16
20 20 20 20 20 20 20 20 20 19 20 20 19 19 19 19 18 18 19 19 18 18 18 18 18 18 17 17 17 17 17 17 16 16 16 16 16 16 16 15 16 16 15 15 15 15 14 14 14 14 14 13 13 14 14 14 14 14 14 14 14 14 14 14 14 14 13 13 13 14 14 14 14 14 14 14 15 15 15 15 15 15 16 16 16
20 20 20 20 19 19 19 19 19 19 19 19 19 18 18 18 18 18 18 17 16 16 17 17 17 17 17 17 17 17 17 17 16 16 16 16 16 16 16 15 16 16 15 15 15 15 15 14 14 14 14 13 13 14 14 14 14 13 13 13 13 13 13 13 13 13 13 13 13 14 14 14 14 14 14 14 15 15 15 15 15 15 16 16 16
19 19 19 19 18 18 18 18 18 18 18 18 18 18 18 18 17 17 17 16 16 16 16 16 16 16 16 17 17 18 17 17 17 16 16 16 16 16 16 16 15 15 15 15 15 15 14 14 14 14 14 13 13 13 13 13 13 13 13 13 13 13 13 13 13 13 13 13 13 13 14 14 14 14 14 14 15 15 15 15 15 15 15 16 16
18 18 18 17 17 17 17 17 17 17 18 18 18 18 17 17 17 17 16 16 16 16 16 16 16 16 15 16 17 17 17 17 17 17 16 16 16 16 16 15 15 15 15 15 14 14 14 14 14 14 13 13 13 13 13 12 12 12 12 12 12 12 12 12 12 12 12 13 13 13 13 14 14 14 14 14 15 15 15 15 15 15 16 16 16
17 17 17 17 17 17 17 17 17 17 17 17 17 17 17 17 17 17 16 16 16 16 16 16 16 16 16 16 17 18 18 17 17 17 16 16 16 16 15 15 15 15 15 14 14 14 14 13 13 13 13 13 13 12 12 12 12 11 11 11 11 11 11 11 11 11 12 12 12 13 13 14 14 14 14 15 15 15 15 15 15 15 15 15 15
17 17 17 17 17 17 17 17 17 17 17 17 17 17 17 17 17 17 16 16 16 16 16 16 16 16 16 16 17 18 18 18 18 17 17 16 16 15 15 15 15 15 14 14 14 13 13 13 13 13 13 12 12 12 12 11 11 11 10 10 10 10 10 10 10 10 10 11 11 12 12 13 13 14 14 14 15 15 15 15 15 15 15 15 15
17 17 17 17 17 17 17 17 17 17 17 17 17 17 17 17 17 17 17 17 17 17 17 16 16 16 16 16 16 17 18 18 17 17 17 16 16 15 15 14 14 14 14 13 13 13 13 13 12 12 12 12 12 11 11 11 10 10 10 10 9 9 9 8 8 9 9 9 10 10 11 11 12 13 13 13 14 14 14 14 14 14 14 14 15
17 17 17 17 17 17 17 17 17 17 17 17 17 17 17 17 17 17 17 17 17 17 17 17 16 17 16 15 16 17 18 17 17 17 16 16 16 15 14 14 14 14 13 13 13 13 12 12 12 12 12 12 11 11 10 10 10 9 9 9 9 8 8 8 8 8 8 8 9 9 10 10 11 11 11 12 12 12 12 12 12 13 13 13 13
16 17 17 17 17 17 17 17 17 17 17 17 17 17 17 17 17 17 17 17 17 17 17 17 17 17 16 16 16 16 17 17 16 16 16 16 15 15 14 14 14 13 13 13 13 12 12 12 12 12 11 11 11 10 10 9 9 9 9 8 8 8 8 8 8 7 7 8 8 8 9 9 9 10 10 10 10 10 10 10 10 11 11 11 11
16 16 16 17 17 17 17 17 17 17 17 16 16 16 17 17 17 17 17 17 17 17 17 17 17 17 16 16 16 15 16 16 16 16 16 15 15 14 14 13 13 13 13 13 13 12 12 12 12 11 11 11 10 10 10 9 9 9 9 8 8 8 8 7 7 7 7 7 7 7 8 8 8 8 9 9 9 9 8 9 9 9 8 9 9
16 16 16 16 17 17 17 17 17 16 16 16 16 16 16 16 17 17 17 16 17 17 16 16 16 16 16 16 15 14 15 15 15 15 15 15 14 14 13 13 12 12 12 12 12 12 12 11 11 12 11 11 11 10 10 10 9 9 9 8 8 8 7 7 7 7 7 7 7 7 7 7 7 8 8 8 8 8 7 7 7 7 7 7 8
17 17 17 17 17 17 16 16 16 16 16 16 16 16 16 16 16 16 16 16 16 16 16 16 16 15 15 15 14 14 14 14 14 14 14 14 13 13 12 12 12 12 12 11 11 11 11 11 11 11 11 11 11 10 10 10 9 9 8 8 8 8 7 7 7 7 7 7 7 7 7 7 7 7 7 7 7 7 7 6 6 6 6 7 7
17 17 17 17 17 17 16 16 16 16 15 15 15 16 16 16 16 16 16 16 16 16 16 16 16 15 15 14 13 13 13 13 13 13 13 13 12 12 12 12 12 11 11 11 11 11 11 11 11 11 11 11 10 10 10 10 9 9 8 8 8 7 7 7 7 7 7 7 7 7 7 7 7 7 7 7 7 7 7 6 6 6 6 6 7
17 17 17 17 17 16 16 16 16 15 15 15 15 15 15 16 16 16 16 16 16 16 16 16 15 15 14 13 12 12 12 12 12 12 12 12 11 11 11 11 11 11 11 11 11 11 10 10 10 10 10 10 10 10 9 9 9 8 8 7 7 7 7 7 7 7 7 7 7 7 7 7 7 7 7 7 7 7 6 6 6 6 6 6 6
17 17 17 17 17 16 16 16 16 15 15 15 15 15 15 15 15 16 16 16 16 16 15 15 15 14 13 12 12 12 12 11 11 11 11 11 11 10 10 10 10 10 10 11 11 10 10 10 10 10 10 10 9 9 9 8 8 8 7 7 7 7 7 6 6 6 6 6 6 6 6 6 6 6 6 6 6 6 6 6 5 5 5 5 6
16 16 16 16 16 16 16 16 15 15 15 15 15 15 15 15 15 15 16 16 16 15 15 15 14 13 12 11 11 11 11 11 10 10 10 10 10 9 9 9 10 10 10 10 11 10 10 10 10 10 10 9 9 8 8 8 7 7 6 6 6 6 6 6 6 6 6 5 5 5 5 5 5 5 5 5 5 5 5 5 5 5 5 5 6
16 16 16 16 16 16 16 16 15 15 15 15 15 15 15 15 15 15 15 16 16 15 15 14 12 11 11 11 10 10 10 10 9 9 9 9 8 9 9 8 8 9 9 10 10 11 11 10 10 10 9 8 8 7 7 6 6 5 5 5 5 5 5 5 4 4 4 4 4 4 4 4 4 4 4 4 4 4 5 5 5 5 5 5 5
15 15 15 15 15 15 16 16 15 15 15 15 15 14 14 14 15 15 15 15 15 15 14 13 11 10 10 9 9 10 10 9 9 8 8 8 8 8 8 7 7 7 8 9 9 10 10 9 9 8 8 7 7 6 6 5 5 4 4 4 3 3 3 3 3 3 2 2 3 3 3 3 3 3 3 3 4 4 4 4 4 4 4 5 5
15 15 15 15 15 15 15 15 15 15 15 15 15 14 14 14 14 15 15 15 14 13 12 11 10 9 9 9 9 9 9 8 8 8 8 8 8 8 7 7 7 7 7 8 8 9 9 8 7 7 6 6 6 5 5 4 4 4 3 3 3 2 2 2 2 2 2 2 2 2 3 3 3 3 3 3 3 3 4 4 4 4 4 4 5
14 14 14 14 14 14 14 15 15 15 14 14 14 14 14 14 14 14 14 14 13 11 10 10 9 9 8 8 8 8 8 8 8 8 7 7 7 7 6 6 7 7 6 7 7 8 8 7 6 6 6 5 5 5 4 4 3 3 3 3 2 2 2 2 2 2 2 2 2 2 2 2 2 2 3 3 3 3 3 3 4 4 4 4 4
14 14 14 14 14 14 14 14 14 14 14 14 14 14 14 13 14 13 13 12 11 10 9 9 9 8 7 7 7 8 8 8 7 7 7 7 7 7 6 6 6 6 6 6 6 6 7 7 6 6 6 5 5 4 4 3 3 3 3 3 3 3 2 2 2 2 2 2 2 2 2 2 2 2 2 3 3 3 3 3 3 3 4 4 4
14 14 14 14 14 14 14 14 14 14 14 14 14 14 14 13 13 12 11 11 11 10 9 9 9 8 7 7 7 7 7 7 7 7 7 7 7 6 6 6 6 6 6 6 6 6 6 5 5 5 5 5 5 4 4 4 4 3 3 3 3 3 3 2 2 2 2 2 2 2 2 2 2 2 2 2 2 2 3 3 3 3 3 4 4
14 13 13 13 13 13 14 14 14 14 14 14 14 14 14 13 12 10 10 10 10 10 9 9 8 8 7 7 6 7 7 7 7 7 7 6 6 6 6 6 6 6 6 5 5 5 5 5 4 4 5 5 5 4 4 4 4 4 3 3 3 3 3 3 2 3 3 3 3 3 2 2 2 2 2 2 2 2 2 2 2 2 3 3 3
13 13 13 13 13 13 13 13 13 13 13 13 14 13 13 12 11 10 10 9 9 9 9 8 8 8 7 7 7 7 7 7 7 7 6 6 6 6 6 5 5 5 4 4 4 4 4 4 5 5 5 5 5 4 4 4 4 3 3 3 3 3 3 3 3 3 3 3 3 3 2 2 2 2 2 2 2 2 2 2 2 2 2 3 3
13 13 13 13 13 13 13 13 13 13 13 12 12 12 11 10 10 10 9 9 9 8 8 8 8 8 7 7 7 7 7 7 6 6 6 5 5 5 5 5 5 4 4 4 4 4 5 5 5 5 5 5 5 4 4 4 3 3 3 3 3 3 3 3 3 3 3 3 2 2 2 2 2 2 2 2 2 2 2 2 2 2 2 3 3
13 13 13 13 13 13 13 13 13 13 12 11 10 10 9 9 9 9 9 9 8 8 8 8 8 8 8 8 8 7 7 6 6 6 6 6 6 6 5 5 5 4 4 4 4 4 4 4 5 5 5 4 4 4 3 3 3 3 3 2 2 2 2 2 2 2 2 2 2 2 1 1 1 1 1 1 1 1 2 2 2 2 2 2 2
12 12 12 12 12 12 12 12 13 12 11 9 8 7 7 8 8 8 8 8 8 8 8 8 8 8 8 7 7 7 7 7 6 6 6 6 6 5 5 4 4 4 3 3 3 4 4 4 4 4 4 3 3 3 3 3 2 2 2 2 2 2 2 2 1 1 1 1 1 1 1 1 0 0 0 0 1 1 1 1 1 2 2 2 2
11 12 12 12 12 12 11 12 12 11 9 8 7 6 6 6 7 7 7 7 7 8 8 7 7 8 8 7 7 7 7 6 6 6 6 5 5 4 4 3 3 3 3 3 3 3 4 4 4 4 3 3 3 3 2 2 2 2 2 2 1 1 1 1 1 1 1 1 0 0 0 0 -0 -0 -0 -0 0 0 0 1 1 1 1 1 1
11 11 11 11 11 11 11 11 11 9 8 7 6 5 5 5 5 5 6 7 7 7 7 7 7 7 7 7 7 6 6 6 6 5 5 5 4 4 3 3 3 3 3 3 3 3 3 3 3 3 2 2 2 2 2 2 2 2 1 1 1 1 0 0 0 0 0 0 -0 -0 -0 -0 -0 -0 -0 -0 -0 -0 -0 0 0 0 1 1 1
10 10 10 10 10 10 10 10 9 8 7 6 6 5 5 4 4 4 5 5 6 6 6 6 6 6 6 6 6 6 6 5 5 5 5 4 4 3 3 3 3 3 3 3 3 3 3 3 2 2 2 2 2 2 2 1 1 1 1 0 0 0 0 0 -0 -0 -0 -0 -0 -0 -1 -1 -1 -1 -1 -1 -1 -1 -0 -0 -0 0 0 0 0
9 9 9 10 10 10 10 9 7 6 6 6 5 5 4 4 4 4 4 4 5 5 6 6 6 6 6 6 6 5 5 5 4 4 4 4 3 3 3 3 3 3 3 3 3 3 3 2 2 2 2 2 2 2 1 1 1 0 -0 -0 -0 -0 -0 -0 -0 -1 -1 -1 -1 -1 -1 -1 -1 -1 -1 -1 -1 -1 -1 -0 -0 -0 0 0 0
8 9 9 9 9 9 8 7 6 5 5 5 5 4 4 4 4 4 4 4 4 4 5 5 5 5 5 5 5 5 4 4 4 4 4 4 3 3 3 4 4 3 3 3 3 2 2 2 2 2 2 1 1 1 1 0 0 -0 -1 -1 -1 -1 -1 -1 -1 -1 -1 -1 -1 -1 -1 -1 -1 -1 -1 -1 -1 -1 -1 -1 -0 -0 -0 0 0
8 8 8 9 9 8 6 5 5 5 4 4 4 4 4 4 4 4 4 4 4 4 4 4 4 4 4 4 4 4 4 4 4 4 4 4 4 4 4 4 4 4 3 3 2 2 1 1 1 1 1 1 1 1 0 -0 -0 -1 -1 -1 -1 -1 -1 -1 -1 -1 -1 -1 -1 -1 -1 -1 -1 -1 -1 -1 -1 -1 -1 -1 -1 -0 -0 -0 0
7 7 7 7 7 7 6 5 5 4 4 4 4 4 4 4 4 5 4 4 4 4 3 4 4 4 4 4 4 4 4 4 4 4 4 4 4 4 4 4 4 3 3 3 2 1 1 1 1 1 1 1 0 0 -0 -0 -1 -1 -1 -2 -2 -2 -2 -2 -2 -2 -2 -2 -2 -2 -2 -2 -2 -1 -1 -1 -1 -1 -1 -1 -1 -0 -0 -0 -0
6 7 7 6 6 5 5 4 4 4 4 4 4 5 5 4 4 5 5 5 4 4 4 4 4 4 4 4 4 4 4 4 4 4 4 4 4 4 4 3 3 3 3 2 1 1 1 1 1 1 0 0 -0 -1 -1 -1 -1 -2 -2 -2 -2 -2 -2 -2 -2 -2 -2 -2 -2 -2 -2 -2 -2 -2 -2 -1 -1 -1 -1 -1 -1 -1 -0 -0 -0
6 6 6 5 5 4 4 4 4 4 4 4 5 5 5 4 5 5 5 5 5 5 4 4 4 4 4 5 5 4 4 4 4 4 4 4 4 4 3 3 3 3 2 1 1 1 1 0 0 -0 -0 -1 -1 -1 -1 -2 -2 -2 -2 -2 -2 -2 -2 -2 -2 -2 -2 -2 -2 -2 -2 -2 -2 -2 -2 -1 -1 -1 -1 -1 -1 -1 -1 -0 -0
5 5 5 4 4 4 4 3 4 4 5 5 5 5 5 5 5 6 6 5 5 5 5 4 4 4 5 5 4 4 4 4 4 4 4 4 4 3 3 3 3 2 1 1 1 0 0 -0 -0 -1 -1 -1 -2 -2 -2 -2 -2 -3 -3 -3 -3 -3 -2 -3 -2 -2 -2 -2 -2 -2 -2 -2 -2 -2 -2 -1 -1 -1 -1 -1 -1 -1 -0 -0 -0
3 3 3 3 3 3 3 4 5 5 5 5 5 5 5 5 6 6 6 6 6 6 6 5 5 5 5 5 4 5 5 5 5 4 4 4 3 3 3 3 2 2 1 1 0 0 -0 -1 -1 -1 -2 -2 -2 -2 -2 -2 -3 -3 -3 -3 -3 -3 -3 -3 -3 -3 -3 -3 -2 -2 -2 -2 -2 -2 -2 -2 -1 -1 -1 -1 -1 -1 -0 -0 0
1 1 2 2 3 3 4 5 6 6 6 6 6 6 6 6 6 7 7 7 7 6 5 5 4 4 5 5 5 5 5 4 4 4 3 3 3 2 2 2 2 1 1 0 0 -0 -1 -1 -1 -2 -2 -2 -2 -2 -2 -2 -2 -3 -3 -3 -3 -3 -3 -3 -3 -3 -3 -3 -3 -3 -2 -2 -2 -2 -2 -1 -1 -1 -1 -1 -1 -0 -0 0 0
2 2 3 3 4 5 5 6 6 7 7 7 7 7 7 7 7 7 7 7 7 6 5 4 4 4 4 4 4 4 4 4 4 3 3 3 2 2 2 2 1 1 1 0 -0 -1 -1 -1 -2 -2 -2 -2 -2 -2 -2 -2 -2 -3 -3 -3 -3 -3 -3 -3 -3 -3 -3 -3 -3 -2 -2 -2 -2 -1 -1 -1 -1 -1 -0 0 0 0 0 0 1
5 5 5 5 6 6 6 7 7 7 7 7 8 8 8 8 8 7 7 7 7 6 5 4 4 4 4 4 4 4 4 3 3 3 3 2 2 2 2 1 1 0 0 0 -0 -1 -1 -2 -2 -2 -2 -2 -2 -2 -2 -2 -2 -2 -2 -3 -3 -3 -3 -3 -3 -2 -2 -2 -2 -2 -2 -2 -1 -1 -1 -1 -1 -0 0 1 1 1 1 1 1
6 6 6 6 6 6 7 7 7 8 8 8 8 8 7 7 7 7 7 6 6 6 5 5 4 4 4 3 4 4 3 3 3 2 2 2 2 1 1 1 -0 -0 -0 -0 -0 -1 -1 -2 -2 -2 -2 -2 -2 -1 -1 -1 -1 -1 -2 -2 -3 -3 -3 -2 -2 -2 -2 -2 -2 -2 -2 -1 -1 -1 -1 -1 -0 -0 0 1 2 2 2 2 2
6 6 6 6 6 6 7 7 7 7 7 7 7 6 6 6 6 6 6 5 5 5 5 4 4 4 4 3 3 3 3 2 2 2 2 2 1 1 1 -0 -1 -1 -1 -1 -1 -1 -1 -2 -2 -1 -2 -2 -1 -1 -1 -1 -1 -1 -1 -2 -2 -2 -2 -2 -2 -1 -1 -1 -1 -1 -1 -1 -1 -1 -1 -0 -0 0 0 1 1 2 2 2 2
6 6 6 6 6 6 6 6 6 6 6 6 6 5 5 5 5 5 5 4 4 4 4 4 3 3 3 3 3 2 2 2 2 2 2 1 1 1 0 -1 -2 -2 -1 -1 -1 -1 -1 -1 -1 -1 -1 -1 -1 -1 -0 -0 -0 -1 -1 -1 -2 -2 -1 -1 -1 -1 -1 -1 -1 -1 -1 -1 -1 -1 -1 -0 -0 0 0 1 1 1 1 1 1
6 6 6 6 6 6 6 5 5 5 5 5 5 5 5 5 5 4 4 4 4 4 3 3 3 3 3 2 2 2 1 1 1 1 2 1 1 -0 -1 -2 -3 -3 -2 -1 -1 -1 -1 -1 -1 -1 -1 -1 -1 -0 -0 -0 -0 -0 -0 -0 -1 -1 -1 -1 -1 -1 -1 -1 -1 -1 -1 -1 -1 -1 -1 -0 -0 -0 0 0 0 0 0 0 0
5 5 5 6 6 6 6 5 5 5 4 4 4 4 4 4 4 4 4 4 3 3 3 3 2 2 2 2 2 2 1 1 1 1 1 1 0 -1 -2 -3 -3 -3 -3 -2 -1 -1 -1 -1 -1 -1 -1 -0 -0 0 0 0 0 0 0 0 -0 -1 -1 -1 -1 -1 -1 -1 -1 -1 -1 -1 -1 -1 -1 -0 -0 -0 0 0 -0 0 0 0 0
5 5 5 5 5 5 5 5 5 5 4 4 4 4 3 3 3 3 3 3 3 2 2 2 2 2 1 1 1 1 1 0 0 0 0 0 -0 -1 -2 -3 -4 -3 -3 -2 -2 -1 -1 -1 -1 -0 -0 -0 0 0 0 0 0 1 0 0 0 -0 -1 -1 -1 -1 -1 -1 -1 -1 -1 -1 -1 -0 -0 -1 -1 -0 -0 -0 -0 -0 -0 -0 0
4 4 4 5 5 4 4 4 4 4 4 4 3 3 3 3 2 2 2 2 1 1 1 1 1 1 0 0 -0 -1 -1 -1 -1 -1 -1 -1 -1 -2 -3 -4 -4 -4 -3 -3 -2 -2 -2 -1 -1 -0 -0 0 1 1 0 1 1 1 1 1 0 0 -0 -1 -1 -1 -1 -1 -1 -1 -1 -1 -1 -1 -1 -0 -0 -0 -0 -0 -0 -0 -0 -0 0
Height
774 777 780 782 784 785 787 788 788 790 792 794 796 798 800 802 804 805 806 808 809 811 813 814 815 817 817 818 818 819 820 820 821 822 822 823 823 824 824 825 826 826 827 827 828 828 829 829 829 829 829 829 829 829 829 828 828 827 827 827 826 826 826 826 826 824 822 822 821 819 818 817 816 815 814 813 812 812 811 811 811 810 810 809 808
774 777 779 781 784 786 787 788 789 790 792 794 796 798 800 801 804 805 806 807 808 810 812 813 814 815 816 817 818 818 819 820 821 821 822 823 823 824 824 824 825 825 826 827 827 828 828 828 828 828 829 829 828 828 828 827 827 827 827 827 827 827 826 826 826 824 822 822 821 820 818 817 816 815 814 813 812 811 811 810 810 809 809 808 807
775 778 779 781 784 786 787 788 789 790 792 793 795 797 799 801 802 804 805 807 808 810 811 812 813 814 815 816 816 817 819 819 820 820 821 821 822 823 823 824 824 824 824 825 826 826 827 827 827 827 828 828 828 827 827 827 827 827 826 827 827 826 826 826 825 824 822 821 820 819 818 817 816 814 814 813 812 811 810 810 809 808 807 806 805
776 778 779 781 783 785 787 788 789 790 791 792 794 796 798 800 801 803 805 808 810 811 812 812 813 814 814 814 815 816 817 818 819 819 819 820 821 821 822 823 823 823 823 824 824 824 825 826 826 826 826 827 827 827 827 827 826 826 826 826 826 826 825 825 824 824 822 820 819 818 817 816 815 814 813 812 811 810 809 808 808 807 806 805 804
776 777 779 781 783 785 787 788 789 790 791 792 793 794 796 798 800 802 804 806 809 811 812 813 815 814 814 814 814 814 814 815 817 818 819 820 820 820 821 821 822 822 822 823 823 823 823 824 825 825 825 826 826 826 826 826 826 826 825 825 825 825 824 824 823 823 822 820 818 817 816 815 814 812 812 811 809 809 808 807 806 806 804 803 802
776 778 780 781 783 784 785 787 789 790 791 791 792 793 795 796 798 800 801 804 807 810 813 815 815 815 815 815 813 812 812 813 814 816 818 819 818 819 819 820 821 821 822 822 822 822 822 823 823 824 824 825 825 825 825 825 825 825 825 825 824 824 823 823 823 822 821 820 818 817 815 814 813 812 811 810 808 807 806 805 805 804 803 801 800
778 780 782 783 784 784 784 786 789 790 791 792 792 793 794 795 796 798 800 803 806 809 810 812 813 814 815 814 812 811 810 811 812 813 814 816 817 817 818 818 819 820 821 821 821 821 821 822 823 823 824 824 824 824 824 824 825 825 825 825 824 824 823 822 822 821 820 819 818 816 815 813 812 811 810 809 808 807 806 804 802 802 801 800 798
781 782 782 783 785 785 785 786 788 790 791 792 793 793 793 793 793 794 797 801 804 806 807 808 809 810 811 811 810 809 808 809 809 810 811 813 815 815 816 816 816 817 819 820 821 821 821 821 822 823 823 823 823 823 823 823 824 824 824 824 824 823 823 822 822 821 820 819 817 816 814 813 811 810 809 808 807 806 805 803 801 800 799 798 797
781 782 782 783 785 786 787 787 788 789 790 791 792 793 793 793 792 793 796 799 802 804 804 805 806 807 806 806 807 807 806 806 806 806 807 809 811 812 813 814 814 815 817 818 820 820 821 821 821 822 822 822 823 823 822 822 823 823 823 823 823 823 822 822 822 821 820 819 817 816 814 813 811 810 808 807 806 805 804 803 801 799 799 797 796
781 782 782 783 784 785 786 787 788 789 789 790 791 791 792 792 792 793 795 797 799 800 801 802 803 803 802 803 804 804 803 803 803 803 804 805 807 809 811 812 813 813 814 816 817 818 819 820 820 820 821 821 822 822 822 821 821 822 822 822 822 822 822 822 821 821 821 819 817 816 814 812 811 810 809 807 806 805 803 802 800 799 798 796 794
782 783 783 783 784 784 785 787 788 788 789 789 790 790 790 791 792 793 794 795 796 797 798 798 799 799 799 801 802 801 800 800 801 801 802 802 804 807 810 812 813 813 814 815 816 817 818 818 819 819 819 820 820 821 821 820 819 820 821 821 821 821 821 821 820 820 820 819 817 816 814 812 811 810 809 807 806 804 803 802 800 799 797 795 793
782 783 783 784 784 785 785 786 787 787 788 789 789 789 790 791 792 793 793 794 794 795 795 796 796 797 797 798 798 797 797 798 798 799 800 802 803 805 808 810 812 813 815 815 816 817 817 817 817 817 817 818 819 820 820 820 818 818 819 819 819 819 819 819 819 819 818 818 817 816 814 813 811 810 809 807 805 804 802 802 800 799 797 796 794
782 783 783 784 784 785 786 786 786 786 787 788 789 789 790 791 792 793 793 793 794 794 794 795 795 796 795 795 795 794 795 796 796 797 798 800 801 803 805 807 809 812 814 814 815 815 815 816 816 816 816 816 817 818 819 819 817 816 817 817 817 817 817 817 817 817 816 816 815 814 813 813 811 809 809 807 806 804 802 801 800 799 798 797 794
781 782 783 784 784 785 785 785 785 786 786 787 789 789 790 791 792 792 792 793 793 793 793 794 794 795 794 793 792 792 793 795 796 796 796 797 799 801 803 806 808 811 812 813 813 813 814 815 815 815 815 814 815 817 818 818 816 815 815 815 816 816 815 815 815 815 814 814 812 811 811 811 810 808 808 807 805 804 802 801 800 799 798 796 794
780 781 782 783 783 784 784 785 785 786 786 787 788 789 790 790 791 791 791 791 792 791 792 792 792 793 793 792 792 792 794 795 795 795 795 796 798 800 803 806 807 809 810 811 812 813 813 814 814 813 813 813 814 816 816 816 815 814 814 814 814 814 814 814 813 812 812 811 810 809 809 809 808 807 807 806 804 803 802 801 800 799 797 794 792
780 780 781 782 782 783 783 784 785 786 786 787 788 788 789 789 789 789 789 790 790 790 790 790 790 791 792 791 791 793 794 794 795 796 796 797 798 800 803 804 806 807 809 810 812 812 813 813 813 812 812 812 813 814 814 814 814 813 813 812 812 812 811 812 811 810 810 809 808 807 806 806 806 805 804 803 802 801 800 798 798 798 796 793 791
779 780 781 781 781 782 783 783 784 785 786 787 787 787 788 787 788 787 787 787 788 788 788 789 789 790 790 790 790 792 794 795 795 796 797 797 799 801 802 803 805 807 809 810 811 811 813 813 812 811 811 810 810 811 812 812 812 811 811 810 810 809 809 809 809 808 808 807 806 805 804 804 803 802 801 801 800 800 798 795 795 796 795 792 789
778 779 780 781 781 782 782 783 783 784 785 785 786 786 786 786 786 786 786 786 786 786 787 787 788 788 788 789 790 791 793 794 796 797 797 798 799 801 802 803 805 807 808 809 810 810 811 811 811 811 810 809 808 808 809 810 810 809 809 808 808 807 806 807 806 806 805 804 803 803 801 801 800 798 797 797 797 797 795 793 793 794 792 790 788
778 778 779 780 780 781 781 782 782 783 783 784 784 784 785 785 785 785 785 784 784 785 785 786 786 786 787 789 790 791 793 794 796 797 797 798 799 801 802 804 805 807 808 808 809 808 808 808 808 809 808 807 806 806 807 807 808 808 807 806 805 805 805 804 804 803 802 801 800 799 798 797 797 795 794 794 794 794 793 791 791 791 789 788 787
778 778 779 779 780 780 780 781 781 781 781 782 782 783 783 783 784 784 783 783 783 783 783 784 784 785 787 789 790 792 793 794 795 796 797 798 800 802 803 804 805 806 807 807 807 807 807 807 806 806 806 805 805 805 805 806 806 806 806 805 804 803 803 802 801 800 799 798 797 796 795 794 794 793 792 791 790 790 789 789 788 788 787 785 785
777 778 778 778 779 779 779 779 779 779 780 780 780 781 782 782 782 782 782 782 781 781 782 782 783 785 787 789 790 791 793 794 795 796 797 799 800 802 803 804 805 806 806 806 807 807 807 806 804 804 805 804 805 805 804 805 805 804 804 803 803 802 801 799 799 798 797 795 794 793 792 791 790 790 789 788 787 787 786 786 785 785 784 783 782
776 776 776 777 777 777 777 778 777 777 778 778 779 780 780 780 781 780 781 780 779 779 780 782 783 785 787 788 789 791 793 794 795 796 797 798 800 802 803 804 805 805 806 807 807 807 807 805 803 804 804 804 804 804 803 803 802 802 802 801 801 800 799 798 797 796 795 793 792 791 790 789 788 787 786 786 785 784 784 783 782 782 781 780 780
775 775 775 775 775 775 776 776 776 776 776 777 777 778 778 779 779 779 779 779 778 779 780 781 783 785 786 788 789 791 793 794 795 797 798 799 801 802 803 805 806 806 806 807 806 806 806 805 803 803 803 803 803 802 802 802 801 801 800 800 799 798 797 796 795 794 793 792 790 789 788 787 786 785 784 783 782 782 781 780 780 779 778 777 777
773 773 773 773 773 774 774 774 774 774 774 775 775 775 776 777 777 777 778 778 778 779 780 781 783 785 786 788 789 791 793 794 796 798 799 800 801 802 804 805 806 807 806 806 806 805 805 804 803 802 802 802 802 801 801 801 800 800 799 798 798 797 795 794 793 792 791 789 788 787 786 785 784 783 782 781 780 779 779 778 777 776 775 774 773
771 771 771 771 771 771 771 771 771 771 771 772 772 772 773 774 775 775 777 778 778 779 780 782 783 785 786 787 789 791 793 795 797 798 799 801 802 803 804 805 805 806 805 804 804 804 803 802 801 801 800 800 800 800 799 799 798 798 797 796 795 794 793 792 791 790 788 787 786 785 784 783 782 781 780 779 778 777 776 775 774 773 773 771 770
768 768 769 769 769 769 768 768 768 768 769 769 770 770 770 771 773 775 776 777 778 780 781 782 783 785 786 787 789 792 794 796 797 798 799 800 801 803 803 803 804 804 803 803 802 802 801 801 800 799 799 798 798 798 797 797 797 797 796 795 794 792 791 790 789 788 786 785 784 783 782 781 780 779 777 776 775 774 773 772 771 770 770 769 768
765 765 766 766 767 767 767 766 766 767 767 767 767 768 768 769 771 773 775 776 777 779 781 783 783 784 785 787 790 792 794 796 797 797 799 800 801 802 802 802 802 802 802 802 801 800 800 799 798 798 797 796 796 796 796 796 796 795 794 794 793 792 790 789 788 786 785 783 782 780 779 778 777 776 775 774 772 771 771 769 768 767 766 766 765
760 761 761 762 763 764 764 764 764 764 765 766 766 766 767 769 770 772 774 775 775 777 780 782 783 784 784 786 789 791 793 795 796 797 798 799 800 801 800 800 801 801 801 801 800 799 799 798 797 797 796 795 795 795 795 796 795 794 794 793 792 791 789 788 786 784 783 781 780 778 777 776 775 774 773 771 770 769 768 767 765 764 764 763 761
756 756 757 758 759 760 761 761 762 763 763 763 765 766 768 769 769 771 772 774 775 777 779 781 782 783 784 786 788 790 792 794 795 796 798 798 799 799 799 799 800 800 800 799 799 798 798 797 796 796 795 795 795 795 795 795 794 793 793 792 790 789 787 786 784 783 781 780 778 776 775 774 772 771 770 769 767 766 766 765 763 762 761 760 758
754 754 755 755 756 757 758 758 760 761 761 762 764 767 768 768 768 769 771 773 775 777 779 780 781 783 784 786 788 790 792 793 795 796 797 798 798 798 798 799 799 799 799 799 798 798 797 796 796 795 795 795 795 795 794 794 793 792 791 790 789 787 785 784 782 780 779 778 776 774 773 771 770 769 767 766 765 764 763 762 760 759 758 757 755
751 752 752 753 754 755 756 757 758 759 759 761 765 767 768 768 769 770 771 773 776 778 779 780 782 784 785 787 789 791 792 794 795 796 797 797 797 797 798 799 799 799 799 798 798 797 796 796 795 795 795 795 795 794 794 793 792 791 789 788 787 785 783 781 779 778 776 775 773 772 770 768 767 765 764 762 761 760 759 758 757 756 755 754 753
749 749 750 751 751 752 754 755 756 757 759 761 764 767 767 768 770 772 773 775 777 778 780 781 783 785 787 788 789 791 793 794 796 796 796 796 797 797 798 799 799 798 798 797 797 796 796 796 796 795 795 795 794 794 793 792 790 789 787 785 784 782 780 778 776 775 773 771 769 768 766 765 763 761 760 758 757 756 755 754 753 752 751 750 749
745 746 747 748 749 750 751 753 754 755 757 760 763 766 766 767 768 771 774 776 778 780 782 783 784 786 787 789 790 791 793 795 796 796 796 796 796 797 798 798 798 797 797 796 796 796 796 796 796 796 796 795 794 793 792 790 789 787 785 783 781 779 777 775 773 772 770 768 766 764 762 761 759 757 755 754 753 752 750 749 749 748 747 746 745
741 742 743 745 746 747 748 750 752 753 756 759 762 765 766 767 768 770 773 776 778 780 782 784 785 786 788 789 791 793 794 795 795 796 796 796 796 797 797 797 796 796 796 796 796 796 796 796 796 796 795 794 793 792 790 789 787 785 783 781 779 776 774 772 770 768 766 764 762 760 758 757 755 753 751 749 748 747 746 745 744 744 743 742 740
737 738 739 741 743 744 746 748 750 752 754 758 762 764 765 767 769 771 773 775 778 780 782 784 786 788 789 791 792 794 795 795 795 796 796 796 796 796 796 795 795 795 795 796 796 796 796 796 796 795 794 793 792 790 789 787 785 784 781 779 776 774 771 769 767 765 763 761 759 756 755 753 751 749 747 745 744 743 741 740 740 739 738 737 736
733 735 736 738 740 741 743 746 750 752 753 756 761 763 764 766 769 772 774 777 779 781 783 785 787 789 790 792 793 794 794 795 795 795 795 795 795 795 795 795 795 796 796 796 796 796 796 796 795 794 793 792 790 789 787 786 784 782 780 777 774 771 769 766 764 761 759 757 755 753 751 748 746 745 743 741 739 738 737 736 735 734 734 733 733
729 731 733 735 737 739 741 744 748 751 753 756 759 763 765 768 771 773 776 779 781 783 785 786 787 789 791 792 792 793 793 794 794 794 795 795 795 795 795 795 796 796 796 796 796 796 796 795 794 793 792 791 789 787 785 784 782 780 778 775 772 769 766 763 761 758 756 754 751 749 747 744 742 741 739 737 735 734 732 731 731 730 729 729 728
724 727 731 733 735 737 740 744 748 751 754 757 760 762 766 770 773 776 778 780 781 783 785 786 787 789 790 791 791 792 793 793 793 794 794 794 795 795 795 796 796 796 796 796 796 796 795 795 794 792 791 789 788 786 784 782 781 778 776 773 770 767 764 761 758 755 753 750 747 745 743 740 738 737 735 733 731 729 728 727 726 725 724 724 724
719 723 726 730 732 736 741 746 750 752 755 758 761 764 767 771 774 777 778 779 781 783 784 786 787 788 789 790 790 791 792 793 793 793 794 794 795 795 796 796 796 796 796 796 796 795 795 794 793 792 790 788 786 784 783 781 779 776 774 770 767 764 761 758 755 752 749 747 744 741 739 736 734 732 731 729 727 725 724 723 722 721 720 720 719
717 720 723 727 731 736 742 748 753 755 756 759 762 766 769 772 774 776 777 779 781 782 784 786 787 788 789 790 790 791 792 792 793 794 794 794 795 796 796 796 796 796 796 796 795 795 794 793 792 791 789 787 785 783 782 780 777 775 772 769 766 762 759 756 753 749 746 743 740 737 735 732 730 728 726 725 723 721 720 718 717 717 716 715 715
719 722 726 729 733 739 745 751 755 756 758 761 764 767 770 772 774 776 777 778 780 782 783 785 786 787 788 789 790 791 791 792 792 794 794 794 795 796 796 796 796 796 796 795 795 794 794 792 791 790 788 786 784 782 781 778 776 773 770 767 764 761 757 754 750 747 743 740 737 734 731 729 727 725 723 721 719 717 716 714 713 713 712 711 711
725 729 732 735 739 744 749 754 756 758 761 763 765 768 771 772 774 775 776 777 779 782 783 784 785 786 787 788 789 790 791 791 792 794 794 795 795 796 796 796 796 795 795 795 794 794 793 792 790 789 787 785 783 781 779 777 774 771 769 766 762 759 755 751 748 744 741 737 734 731 728 726 723 721 719 717 715 713 712 710 709 709 708 708 708
734 736 739 742 745 748 752 755 758 760 762 764 766 768 770 772 773 774 776 778 780 781 782 783 785 786 787 788 789 790 791 792 793 794 794 795 795 796 796 796 795 795 795 795 794 793 792 791 790 788 786 784 782 780 778 776 773 770 767 764 761 757 753 750 746 742 738 735 731 728 725 723 720 718 716 714 712 710 709 707 706 705 705 706 706
741 743 745 747 750 753 756 758 760 762 763 765 767 768 770 772 773 774 776 777 779 780 781 783 785 786 787 788 789 790 791 792 793 794 794 795 795 796 796 795 795 795 795 795 794 793 792 791 789 787 785 783 782 779 777 775 772 770 767 763 760 756 752 748 744 740 736 733 729 726 723 721 719 716 714 712 710 709 707 705 704 704 704 704 704
747 749 750 752 754 756 758 759 761 762 764 766 768 770 771 772 773 774 776 777 778 780 782 784 785 787 788 789 790 791 792 793 793 793 794 794 795 795 795 794 794 794 795 795 794 793 792 790 788 786 784 782 780 778 776 774 771 769 766 763 759 755 751 747 743 739 735 732 728 725 722 720 718 715 713 711 710 708 706 705 704 703 703 703 703
751 752 754 755 756 757 759 760 762 763 765 768 769 771 772 773 774 776 777 779 780 782 784 785 786 787 788 789 790 791 792 793 793 793 794 795 795 795 794 794 793 794 794 794 794 792 791 790 788 786 784 782 779 777 775 773 771 768 766 762 759 755 751 747 743 739 735 732 728 725 722 720 717 715 713 711 709 708 706 705 704 703 703 703 703
755 756 757 758 758 760 761 763 764 766 768 770 771 772 774 775 776 778 779 780 782 783 785 786 787 788 789 790 791 791 792 792 792 793 794 795 795 794 794 793 793 793 793 793 793 792 791 790 788 786 784 781 779 777 775 773 770 768 765 761 758 754 750 747 743 739 736 732 729 726 723 720 718 715 713 711 709 708 706 705 704 704 703 703 703
759 760 760 761 762 764 765 767 768 769 771 772 774 775 776 777 778 780 781 782 783 785 785 786 787 788 789 790 791 792 792 792 792 793 795 796 795 794 794 793 793 793 793 793 793 792 791 789 788 786 784 781 779 777 775 773 770 767 764 761 757 754 750 747 743 740 737 733 730 727 724 721 718 716 714 712 710 709 707 706 705 704 704 703 703
762 763 764 765 766 767 768 770 771 772 774 775 776 777 778 779 780 781 782 784 785 786 786 787 788 789 790 790 791 792 792 792 793 794 795 796 795 794 794 793 793 793 793 792 792 791 791 789 788 786 784 781 779 778 776 773 770 767 764 760 757 754 751 747 744 741 738 734 731 728 725 722 720 717 715 713 712 710 708 707 706 705 705 704 704
765 766 767 768 769 770 771 772 773 774 776 777 777 778 779 780 781 783 784 785 786 787 787 788 789 790 790 791 791 792 792 793 794 795 795 796 795 794 794 793 793 792 792 792 791 791 790 789 787 786 784 781 780 778 776 773 770 767 764 761 758 755 751 748 745 742 739 735 732 729 727 724 721 719 717 715 713 712 710 709 708 707 707 706 707
769 769 770 771 772 773 774 774 775 776 777 778 779 780 781 782 783 784 785 786 787 788 789 789 790 791 791 792 792 793 793 794 794 795 795 796 795 794 794 793 793 792 792 792 791 791 790 788 787 786 784 782 781 779 776 773 770 767 764 761 758 755 752 749 746 743 740 737 734 731 728 726 723 721 720 718 716 714 713 711 710 710 709 709 709
Wind_Speed
12 15 12 10 12 12 12 11 10 12 9 7 12 15 13 11 10 12 14 14 16 16 14 15 15 14 14 14 14 14 14 14 13 11 11 10 10 10 9 9 8 9 8 6 6 5 4 4 4 3 1 1 1 3 4 5 6 6 6 5 5 4 4 7 7 9 12 13 14 16 15 15 16 15 15 15 15 15 16 17 16 17 18 18 18
12 12 10 10 10 11 13 13 10 12 12 8 10 13 14 12 9 10 13 12 15 17 14 14 15 14 14 14 15 15 15 15 14 13 12 12 11 11 10 10 9 10 10 8 7 8 6 5 5 5 4 2 3 4 4 3 5 6 5 4 6 6 5 8 10 10 12 14 15 15 15 14 14 13 13 14 16 16 17 18 18 18 19 20 21
13 11 9 11 11 11 14 15 12 13 14 13 12 14 16 11 5 6 11 10 11 15 15 15 16 15 15 15 15 16 15 16 16 16 15 14 13 13 12 11 10 11 11 9 9 10 8 6 6 6 6 4 4 4 3 3 4 5 5 5 7 9 9 10 11 12 14 16 15 14 14 13 13 14 14 16 17 17 17 18 18 19 20 20 21
16 14 10 10 11 10 10 12 13 12 13 16 15 15 16 12 4 3 7 8 8 9 12 13 14 15 17 17 17 17 17 17 17 18 17 16 15 15 13 12 12 11 11 10 10 10 9 8 7 7 7 6 5 5 4 4 4 4 5 6 7 9 9 8 10 12 14 15 15 15 15 15 16 16 15 16 16 15 16 17 17 19 20 20 21
12 12 11 10 10 9 8 8 8 9 11 13 14 14 13 12 8 4 4 5 6 6 6 8 12 14 17 18 19 19 18 19 19 19 18 17 17 16 14 14 13 13 12 11 10 10 9 8 8 7 7 6 5 5 4 3 4 5 6 7 8 9 10 10 11 13 15 17 19 18 17 17 17 16 15 16 17 16 16 16 16 17 19 20 21
10 10 10 11 10 10 9 7 4 5 8 10 11 12 11 9 10 10 7 7 10 10 11 15 17 16 17 20 21 21 20 20 20 20 19 18 18 17 15 14 14 13 12 12 11 11 10 9 8 7 7 6 6 5 4 3 4 5 6 7 8 10 11 11 12 14 16 18 19 19 19 18 18 17 16 16 17 17 17 17 18 19 19 21 21
13 13 12 12 12 13 14 12 8 5 5 7 8 10 9 7 8 11 11 12 17 19 21 22 23 21 23 27 28 25 23 22 21 21 20 19 19 19 17 16 15 14 13 12 11 11 11 10 8 8 8 7 6 6 5 4 4 4 5 7 8 9 10 11 12 14 16 18 19 19 19 18 18 18 16 16 16 16 18 19 19 17 17 18 20
13 12 12 12 12 11 12 12 10 7 4 4 4 5 7 7 7 9 11 15 22 26 26 26 28 27 28 31 31 26 25 24 22 22 21 20 20 20 19 18 16 15 15 13 12 11 10 9 8 8 9 9 9 9 8 6 6 7 7 7 7 9 9 10 12 14 15 17 18 18 19 18 18 18 17 16 15 14 15 17 18 19 20 20 21
12 12 12 11 10 9 8 9 10 8 5 4 2 2 3 4 5 6 9 14 19 22 24 26 28 28 29 31 30 26 25 26 26 25 23 22 22 22 21 20 18 17 16 14 12 11 11 10 9 9 10 12 12 11 9 8 10 11 10 9 8 8 8 9 10 12 14 16 17 18 18 18 18 18 17 15 15 16 17 19 21 22 22 23 23
11 11 11 10 8 7 7 8 7 6 5 4 2 0 2 4 5 7 12 17 19 21 24 25 24 24 28 30 30 28 26 25 25 26 26 26 24 23 22 21 20 19 17 15 14 12 11 10 11 13 13 13 12 12 11 10 9 10 10 11 10 9 9 10 11 12 13 15 16 16 17 17 18 18 19 18 18 18 18 18 19 20 20 20 20
8 8 8 8 7 6 6 6 4 5 5 4 3 3 3 3 4 7 11 16 17 17 19 21 21 23 26 28 29 30 30 27 25 25 26 27 25 22 21 20 19 16 15 15 14 13 12 11 12 14 15 14 13 13 13 9 7 8 10 10 10 10 10 12 13 13 14 14 15 16 16 16 17 18 20 20 19 19 19 19 18 19 18 16 15
7 7 5 5 5 5 5 4 4 5 5 4 6 6 5 5 5 6 8 10 12 12 13 15 16 19 23 25 26 27 28 28 29 28 26 25 25 23 20 18 15 14 13 12 12 12 12 11 10 11 12 13 13 12 11 10 9 10 10 9 10 10 11 13 13 14 14 15 16 16 17 17 18 18 18 19 21 22 22 21 19 19 19 17 16
7 6 4 3 4 4 3 2 3 6 5 4 5 5 4 5 5 6 6 6 9 11 13 13 13 14 16 19 20 22 25 26 26 27 27 27 27 25 22 18 15 15 13 12 13 12 11 10 10 10 11 11 11 10 11 12 12 11 11 10 11 12 13 14 14 15 17 18 19 18 18 18 19 19 18 19 21 21 19 18 18 19 20 19 21
9 7 6 5 4 3 2 3 4 5 5 4 3 3 4 5 6 6 6 6 7 9 10 11 12 12 12 11 13 17 21 22 22 24 29 29 27 26 24 18 14 14 13 12 13 11 10 10 11 11 10 10 10 11 11 11 10 8 9 10 11 12 14 15 16 18 20 22 24 24 23 22 22 22 21 20 18 16 15 17 19 21 23 24 26
8 7 7 5 4 4 4 4 4 3 2 3 3 4 5 6 6 6 6 7 7 8 9 9 11 11 9 9 10 12 15 18 21 24 27 27 26 25 21 15 12 12 13 12 11 10 10 12 12 11 11 10 11 12 12 11 9 8 8 9 12 13 15 16 18 20 22 23 24 26 26 24 24 23 22 20 19 20 21 23 22 23 25 27 28
5 6 5 4 4 4 5 4 3 1 0 1 3 4 5 6 7 7 7 7 8 9 9 8 9 9 9 8 9 12 15 17 19 21 23 23 22 20 17 14 12 12 11 10 11 12 13 13 13 13 13 13 14 14 14 13 13 12 11 12 15 17 18 18 18 19 20 21 21 22 23 23 23 25 26 27 28 29 29 29 28 26 25 24 24
5 5 5 4 4 4 4 4 4 3 2 2 4 4 5 6 7 8 9 8 8 9 9 8 7 7 8 10 10 12 15 17 17 18 20 20 18 15 12 11 10 9 9 10 12 13 12 13 14 13 13 13 12 12 12 13 13 13 13 15 17 18 18 18 18 18 18 19 21 22 23 23 25 27 29 31 31 30 30 29 26 24 23 20 18
5 4 4 4 3 3 4 4 4 4 4 4 4 4 5 7 8 9 10 10 9 8 8 7 6 5 7 10 10 11 16 18 16 16 17 17 17 14 9 8 9 7 7 9 12 12 12 13 15 15 14 13 12 10 11 12 13 14 15 16 17 18 18 18 19 19 18 19 19 20 21 22 22 22 23 25 25 24 26 27 24 22 21 19 18
5 5 4 4 4 5 5 5 6 6 6 6 5 5 5 7 8 9 11 10 9 10 9 7 5 6 6 7 8 10 15 18 16 15 16 15 16 14 8 6 7 6 4 7 11 13 12 12 14 15 14 13 12 11 11 11 12 12 12 13 15 17 18 18 19 19 20 21 21 22 24 25 25 25 24 24 23 21 23 24 24 22 21 20 20
8 8 7 7 7 7 7 8 8 8 8 7 6 6 6 7 8 10 12 11 10 10 8 7 7 6 4 5 6 8 13 17 17 15 14 12 13 12 7 4 4 3 4 6 8 8 7 6 8 10 11 10 9 8 8 9 10 11 12 14 17 18 19 20 21 23 25 26 27 28 28 28 28 28 28 27 27 26 25 24 24 24 22 21 21
10 10 9 10 10 10 10 10 9 8 8 7 7 7 7 8 9 10 12 12 9 5 6 11 11 8 6 5 6 7 12 17 18 15 13 10 11 10 6 3 3 2 4 5 5 5 6 4 3 5 7 7 7 7 9 11 13 15 17 17 18 19 20 21 22 23 24 26 26 25 25 24 24 24 24 24 24 24 24 24 24 23 24 23 22
12 12 12 12 12 12 12 12 10 9 8 8 9 9 9 9 11 11 12 10 5 8 11 13 13 11 11 10 9 10 13 15 15 14 13 10 9 8 6 5 5 5 5 6 6 6 7 5 2 2 4 7 9 12 15 17 17 17 16 15 15 16 17 19 21 21 21 21 21 21 20 20 20 20 21 21 22 22 22 22 23 23 24 25 24
14 14 14 14 14 14 14 13 13 12 12 12 12 11 10 10 11 11 9 4 8 13 14 15 15 14 13 12 11 12 12 13 12 12 12 10 8 7 6 6 6 7 8 7 6 6 6 5 3 4 8 12 14 16 16 15 14 13 12 13 14 15 16 19 20 20 20 20 19 19 19 19 19 20 20 20 21 21 21 22 22 22 23 24 25
16 17 16 16 16 16 15 16 15 15 14 15 15 13 12 12 11 8 5 5 11 15 14 15 16 15 14 14 14 14 13 11 10 10 10 9 8 7 6 4 3 4 5 6 5 6 7 8 9 12 15 16 15 14 12 10 10 11 12 14 15 15 17 19 19 18 18 18 18 18 18 18 19 20 21 21 21 21 22 23 23 23 24 25 25
19 18 17 17 17 17 17 17 16 16 16 16 16 15 13 11 7 5 5 8 12 13 14 15 16 15 14 15 16 15 13 11 10 10 9 8 8 6 4 3 1 2 3 1 3 5 7 9 13 16 16 14 11 9 9 9 10 12 13 14 15 16 18 18 17 17 17 17 17 18 18 19 20 21 22 22 22 23 23 24 24 24 24 25 26
20 19 18 18 18 18 17 16 15 16 16 16 17 16 13 9 6 8 9 10 11 11 13 14 15 15 16 17 17 16 14 13 12 11 10 8 8 6 3 2 1 3 5 4 3 5 8 11 14 15 14 12 11 10 9 10 11 12 13 14 15 16 17 16 16 16 16 17 18 19 19 20 21 22 22 23 24 24 24 25 25 24 23 23 24
23 20 18 18 18 17 18 18 17 17 16 17 17 14 9 8 10 11 11 13 14 13 13 14 15 16 17 18 17 17 15 13 11 10 9 7 5 4 3 1 2 4 4 4 6 9 11 11 11 11 11 11 12 12 12 11 12 12 13 14 15 15 16 17 18 19 19 20 21 21 22 22 21 22 22 21 22 23 23 23 24 23 22 22 21
24 21 19 19 19 19 20 20 18 16 15 14 12 6 6 10 11 10 11 14 16 16 16 15 15 17 19 20 19 17 15 13 12 11 9 7 5 4 3 2 0 2 4 8 9 9 8 7 7 8 10 10 10 10 10 11 13 13 15 16 16 17 18 19 19 20 20 20 21 20 20 20 20 20 20 20 20 21 21 22 23 23 22 21 20
20 19 19 20 20 19 20 18 16 14 10 4 3 5 8 11 10 8 9 12 15 16 17 16 16 18 19 19 18 17 17 15 13 10 8 7 6 5 4 2 2 2 4 6 6 5 5 6 7 9 10 10 11 12 12 13 14 15 16 16 17 18 19 19 20 20 21 21 21 22 22 22 22 22 22 22 22 22 22 22 22 22 21 20 20
19 19 20 19 18 18 18 17 17 15 7 8 9 8 8 10 10 9 10 12 15 17 18 17 17 19 18 16 15 17 17 15 11 8 7 6 4 2 2 1 2 3 3 4 5 5 7 9 8 9 11 12 12 12 12 14 15 16 16 17 18 19 20 20 21 21 21 21 22 23 24 24 24 24 23 23 24 24 23 23 23 22 21 21 20
20 19 18 17 17 17 16 16 15 10 8 13 12 12 15 16 14 14 15 16 16 17 18 17 16 16 17 16 16 16 15 12 10 8 6 4 3 3 4 6 8 7 5 6 7 7 8 10 10 11 12 12 12 13 13 15 16 16 17 19 20 20 21 21 21 21 21 22 23 24 25 25 25 25 25 25 25 25 25 25 25 24 23 23 22
21 19 18 19 18 17 17 17 12 8 14 15 14 17 21 23 21 19 18 19 19 18 18 18 17 16 15 15 16 16 14 11 9 7 5 4 5 6 7 7 8 6 6 8 8 8 8 10 11 12 12 12 13 14 15 16 16 17 18 19 20 21 21 22 22 22 23 23 24 25 25 26 26 26 27 27 26 25 25 25 25 24 24 24 25
22 20 20 20 18 18 18 15 11 14 18 17 16 19 22 23 25 25 23 21 21 20 18 17 17 16 14 13 13 12 11 10 8 8 7 7 7 7 6 4 3 3 6 8 8 8 10 11 11 11 12 13 14 15 16 17 17 17 18 20 21 22 23 24 24 24 25 26 26 26 26 26 27 27 27 27 26 26 25 25 25 24 24 24 24
24 24 23 21 20 19 17 13 14 19 20 18 17 19 19 21 24 26 25 23 21 20 18 15 14 12 12 12 11 11 11 11 11 11 10 8 7 5 2 1 1 0 4 6 7 8 10 11 11 11 12 13 14 15 16 16 17 19 21 22 23 23 24 25 25 25 26 26 26 26 26 26 26 26 26 25 25 25 24 24 24 23 23 23 23
23 23 23 23 21 16 12 13 19 23 22 20 19 20 22 23 23 22 22 21 20 19 17 14 12 11 11 11 11 11 12 12 12 12 11 8 5 3 3 3 2 2 4 6 7 8 10 10 11 12 13 13 15 16 16 17 19 21 23 24 24 24 25 25 25 26 26 26 25 26 26 27 27 27 26 26 25 24 24 24 23 23 23 22 22
22 21 21 20 17 14 13 17 23 25 26 26 25 24 25 25 23 21 20 20 20 18 16 14 13 12 11 11 11 12 12 11 10 10 9 7 5 5 6 6 6 6 6 7 8 8 9 10 12 13 13 13 15 16 16 17 19 22 24 25 25 25 25 26 26 26 26 26 27 27 27 27 27 27 27 26 26 26 26 25 25 24 25 24 23
23 21 17 15 16 18 20 24 28 29 29 30 30 27 25 23 21 20 19 19 18 17 16 15 15 14 13 11 11 11 11 9 7 7 6 5 5 6 6 6 6 6 6 7 8 7 9 11 12 12 13 14 15 16 16 17 20 23 25 26 26 26 26 27 27 28 28 28 28 28 28 28 28 27 26 26 26 26 26 25 25 25 25 25 25
25 23 19 17 20 24 27 30 32 32 31 29 28 28 26 22 19 18 18 17 17 15 15 16 16 15 14 12 11 10 9 7 6 3 2 1 2 4 5 5 5 6 6 7 7 8 10 11 12 13 14 15 16 17 16 18 21 24 25 26 27 27 27 28 28 28 28 28 28 28 28 28 27 27 27 26 26 25 25 25 24 23 24 24 23
23 24 23 24 29 33 34 32 30 31 30 28 27 28 26 22 19 19 18 17 15 13 14 16 16 14 13 12 11 9 7 6 4 2 1 1 2 4 5 5 5 5 5 5 6 8 10 11 12 13 14 15 16 17 18 20 24 25 26 26 27 27 28 28 28 28 28 28 28 28 28 28 27 27 26 25 25 25 25 25 24 24 23 23 22
17 21 27 34 39 40 37 33 30 29 29 28 28 28 26 23 22 20 18 17 17 17 16 16 15 14 14 12 11 8 5 6 6 2 3 6 6 6 6 6 5 5 5 6 7 8 9 10 12 13 14 15 16 17 19 23 25 26 26 27 27 28 28 28 28 28 28 28 28 28 27 27 27 26 25 24 24 24 24 24 24 24 24 23 23
27 30 35 40 41 39 36 32 29 27 27 26 26 26 25 23 21 20 19 19 19 17 15 14 14 15 14 12 9 6 3 2 4 6 7 7 6 6 6 5 5 6 6 7 7 7 8 10 12 12 14 16 17 19 21 23 25 26 27 28 28 28 28 29 29 29 28 28 27 27 26 26 25 24 24 24 23 23 24 24 23 23 23 22 22
33 34 34 35 36 35 32 29 26 24 24 24 24 24 24 22 19 18 18 18 16 14 16 16 15 14 11 8 7 7 7 7 7 7 6 5 4 5 6 5 5 6 7 7 7 6 8 9 11 12 14 16 19 20 21 23 25 27 28 28 28 28 28 29 29 29 29 28 27 26 26 25 24 24 23 23 22 21 22 22 22 21 20 19 19
32 32 31 31 31 31 29 26 24 23 24 24 23 22 22 22 19 17 16 15 14 18 18 15 12 10 8 7 8 8 8 7 6 5 5 4 4 4 5 5 5 6 7 7 6 6 7 9 10 12 14 16 19 19 19 22 26 27 28 28 29 29 29 29 30 31 30 29 28 27 25 24 23 23 22 21 20 20 20 20 19 17 16 16 16
31 31 29 28 27 26 24 22 20 20 21 19 16 16 17 17 16 15 13 14 17 20 17 13 12 11 10 9 9 7 6 5 5 5 5 4 3 4 6 7 6 6 7 8 8 7 8 8 10 12 14 16 18 19 21 23 26 27 27 28 29 30 30 30 31 31 31 29 27 26 24 23 22 21 20 18 17 17 17 16 15 14 14 14 14
25 24 23 21 20 19 18 18 19 20 19 17 16 17 17 18 18 18 17 17 17 17 15 13 11 11 10 9 7 6 6 5 5 5 4 3 3 3 5 6 5 4 6 8 9 9 9 9 11 13 14 16 19 22 23 25 26 27 27 28 29 31 32 31 30 30 29 27 25 24 23 22 21 20 18 17 15 14 13 12 9 9 12 13 13
22 22 22 22 21 21 21 22 23 23 21 20 19 18 18 19 19 18 17 15 14 14 13 11 10 10 9 7 6 6 7 6 5 5 4 5 5 3 3 6 6 4 4 7 9 10 10 10 12 14 15 17 20 23 25 26 27 27 28 28 29 31 31 29 28 28 28 25 24 24 22 20 19 18 17 15 14 12 11 9 7 4 5 6 7
22 23 22 23 23 24 23 23 23 22 20 19 18 17 17 16 17 17 16 15 14 12 11 10 10 9 8 7 6 6 6 5 5 4 3 4 4 3 5 7 7 3 3 6 9 10 11 11 12 14 15 17 19 23 25 27 28 29 29 29 29 30 29 28 27 27 26 23 22 22 21 19 18 18 17 15 14 11 9 7 6 4 2 1 3
21 21 20 20 20 20 20 19 19 19 19 18 17 17 16 15 15 15 14 13 12 11 10 10 9 8 7 7 6 5 4 5 5 3 3 3 4 4 6 7 5 4 4 6 8 10 11 11 12 14 16 18 19 22 25 28 31 32 31 29 29 29 27 26 25 26 25 23 21 21 21 20 18 17 17 16 14 10 8 7 5 2 1 2 4
20 20 19 19 18 17 16 16 15 15 15 15 16 16 16 15 15 14 13 12 11 10 9 9 8 7 7 6 5 4 4 5 4 2 3 4 5 6 7 6 6 5 4 5 7 10 11 11 11 14 18 19 20 22 25 29 32 33 30 28 28 28 27 24 24 25 25 23 21 21 21 20 20 18 16 16 14 11 9 8 6 4 5 6 8
19 18 17 17 17 15 15 15 15 14 14 14 15 15 16 15 14 13 12 11 11 10 9 8 8 7 6 6 5 5 5 4 3 1 3 4 6 6 6 6 6 5 4 5 8 10 11 11 12 16 19 20 20 22 25 30 32 31 29 27 26 27 27 24 23 25 26 23 20 21 21 20 20 19 17 16 16 14 12 10 9 8 10 10 11
17 17 16 16 15 15 14 15 14 14 14 14 15 15 14 14 13 12 12 11 11 10 9 8 7 7 7 6 5 4 4 3 2 2 2 3 5 6 6 6 6 5 6 7 8 9 9 10 13 17 19 19 19 22 27 30 30 29 28 26 25 26 27 24 22 24 26 23 20 20 21 20 20 20 19 17 16 16 14 13 12 11 12 12 12
Wind_Direction
155 161 168 168 166 172 173 170 180 184 172 155 160 167 178 192 204 198 186 180 174 172 180 187 187 190 193 195 196 195 194 195 193 191 193 189 187 186 180 181 187 182 180 180 180 190 200 199 207 229 257 359 320 275 275 264 263 269 255 245 256 252 265 281 283 290 293 294 300 302 302 305 307 307 308 307 305 304 297 291 285 280 282 285 283
164 165 166 170 174 178 177 175 181 186 186 182 174 177 184 198 221 207 187 185 183 179 184 192 194 196 203 206 204 203 203 200 198 197 198 198 197 195 187 188 195 188 183 191 195 193 198 210 208 204 214 247 268 279 299 292 284 287 274 264 282 284 287 294 295 298 297 296 297 296 292 294 298 298 298 299 299 298 295 293 290 286 284 282 280
169 177 173 176 185 181 176 183 187 185 195 203 194 185 188 198 232 219 203 204 200 194 193 198 203 207 212 216 213 211 210 208 205 202 203 203 201 202 198 195 201 195 187 198 204 194 194 208 209 202 209 229 242 255 283 287 291 308 309 305 299 291 283 282 283 281 284 289 292 292 292 292 292 292 291 290 291 291 290 288 286 285 284 283 282
176 191 190 181 189 184 173 182 187 179 188 199 195 187 190 197 215 230 219 227 236 225 210 210 220 220 216 218 220 219 216 215 214 208 207 208 204 205 204 200 205 204 197 202 205 195 191 200 208 207 207 213 226 245 258 258 264 290 305 302 299 299 297 292 288 284 284 290 295 296 296 294 291 291 290 289 289 289 287 285 284 283 282 282 282
166 177 175 165 169 171 157 163 177 169 167 177 180 182 192 206 224 235 224 250 288 287 258 259 261 244 230 224 223 224 220 217 218 215 214 214 209 206 207 207 209 208 206 206 203 196 193 202 210 207 203 208 223 239 245 255 273 286 298 299 300 306 310 308 303 299 296 296 296 297 296 294 292 291 290 289 287 285 283 282 283 284 284 284 282
117 124 132 132 130 127 118 112 138 170 177 183 189 196 202 219 243 250 253 277 292 277 264 278 282 272 262 251 238 231 226 221 219 217 216 218 214 210 210 210 210 212 212 209 206 206 204 208 213 207 205 215 224 234 247 263 276 284 294 299 299 304 308 308 303 299 296 293 294 295 294 292 289 287 288 287 284 283 285 285 281 278 277 277 280
93 99 103 100 98 103 105 101 100 122 172 191 198 205 202 203 229 243 250 263 267 257 251 260 266 262 260 257 248 235 227 224 223 217 214 217 217 213 211 210 209 212 214 209 208 212 210 207 210 209 209 217 221 221 222 228 244 265 286 295 298 301 304 304 303 301 299 296 293 292 291 290 288 286 286 286 282 282 286 286 283 284 284 284 288
96 96 95 89 84 89 97 101 104 110 129 157 178 192 183 177 193 217 230 237 243 245 244 245 248 249 251 253 249 238 228 226 225 219 213 216 218 214 209 208 208 209 210 211 211 210 206 203 209 213 213 217 218 213 210 222 251 266 273 283 293 299 302 302 303 304 303 300 297 295 294 293 291 288 286 283 278 277 285 295 304 308 304 298 295
105 99 99 96 87 83 88 96 103 114 130 144 165 182 169 165 172 195 224 231 233 241 243 239 241 247 254 255 250 242 235 230 226 220 215 214 214 212 209 209 210 207 203 205 210 210 208 208 210 212 218 223 222 222 234 256 271 274 273 274 278 288 298 303 306 308 307 305 303 303 303 300 298 299 300 297 294 294 297 300 302 301 298 294 292
101 99 99 103 101 97 98 98 99 108 123 130 127 276 246 239 222 221 237 240 241 244 243 238 239 248 257 260 252 243 238 233 225 219 217 215 210 209 211 210 208 205 201 201 205 206 207 211 214 215 221 229 233 243 259 268 270 271 273 275 276 281 290 298 304 302 300 299 297 298 302 300 300 305 309 309 308 308 307 304 298 296 296 293 291
98 100 103 111 116 111 103 99 90 85 89 85 53 16 348 314 267 254 250 245 247 249 242 237 240 246 250 254 251 242 238 236 227 219 220 217 208 207 211 209 206 203 199 199 201 201 204 212 219 221 224 234 244 255 264 268 273 280 279 276 276 277 284 292 296 293 289 289 289 291 295 297 299 305 309 315 319 320 321 321 318 316 312 305 301
111 110 109 113 116 110 102 98 87 82 75 48 33 25 7 347 309 282 267 251 251 257 252 248 252 250 244 243 244 239 234 232 230 229 228 218 207 202 200 198 199 201 200 202 205 204 204 211 222 226 229 237 243 249 255 258 272 284 279 270 269 273 282 287 286 283 279 279 282 285 288 293 299 301 303 311 319 321 321 321 324 328 327 322 316
137 130 122 109 104 105 111 115 94 80 68 44 31 16 341 318 304 294 283 262 252 252 253 257 265 266 255 246 245 242 234 228 229 230 223 210 201 195 190 187 193 199 202 206 208 205 201 206 222 229 231 237 239 240 249 257 267 272 264 259 265 272 280 281 278 277 274 270 270 274 279 286 291 293 295 301 310 315 317 318 319 324 325 320 314
150 151 149 140 133 138 136 101 77 62 48 33 12 341 318 307 299 287 274 268 264 256 249 246 254 266 270 253 239 238 233 225 220 216 207 199 195 191 185 182 188 197 205 213 216 219 221 222 230 234 234 240 243 243 245 250 258 263 255 256 265 272 279 282 283 282 277 269 265 266 270 276 280 285 288 291 297 305 311 312 312 312 311 306 303
157 161 158 156 164 160 143 107 79 61 33 10 339 318 309 301 294 282 263 255 261 265 258 245 241 251 267 256 226 215 214 211 206 200 193 189 189 186 181 180 186 197 205 213 221 231 233 231 234 237 238 243 249 249 244 241 248 261 267 269 273 276 279 282 285 286 282 275 270 269 270 272 274 276 277 277 282 290 297 300 300 302 302 298 295
179 170 160 173 186 160 142 130 116 110 17 326 309 305 305 302 298 290 275 260 259 265 264 253 240 237 247 248 224 202 197 196 193 188 184 185 186 181 181 186 190 193 199 210 222 227 230 233 237 239 242 247 251 251 249 249 251 257 268 276 278 278 278 280 283 283 281 278 276 276 275 275 273 272 271 275 281 287 290 292 293 294 295 293 289
213 192 182 202 202 169 164 174 176 188 217 248 273 290 298 299 298 293 283 269 262 261 260 261 261 248 234 225 213 201 197 195 191 186 188 191 186 176 179 188 188 196 215 227 228 228 234 243 243 242 245 250 253 251 252 255 258 263 271 276 278 278 278 282 285 283 280 279 280 281 281 280 278 276 274 275 278 283 285 285 286 285 283 282 279
232 219 214 229 227 203 206 210 203 210 228 244 260 271 282 289 291 289 285 275 265 262 262 262 256 230 208 206 207 204 198 195 191 190 196 201 192 178 175 187 193 206 228 228 226 233 246 248 243 241 244 248 251 252 253 259 264 269 272 272 272 274 277 284 288 287 284 282 280 279 277 277 279 281 281 278 276 276 276 275 277 276 271 269 270
274 276 272 272 273 260 246 237 235 236 238 242 248 257 273 285 288 287 284 274 262 257 255 243 207 189 193 202 207 203 196 193 192 195 203 205 196 184 171 177 196 214 248 241 239 247 251 242 236 237 238 238 242 246 249 255 258 261 264 268 273 277 281 285 286 285 286 287 284 280 276 275 278 282 283 282 279 276 272 272 274 271 265 265 269
279 279 282 284 282 275 264 251 243 240 238 239 242 248 262 275 282 285 283 274 267 259 238 190 161 165 182 198 205 202 198 194 189 188 190 187 185 183 174 174 209 262 300 278 264 268 268 251 238 234 232 234 242 248 254 262 267 268 272 276 279 280 282 282 282 284 288 290 288 285 282 279 280 280 279 278 277 276 273 272 270 266 263 264 266
273 277 280 283 282 278 275 269 261 253 249 247 248 250 259 270 275 278 278 273 266 242 175 150 143 139 140 160 181 188 192 190 181 175 175 171 175 184 190 211 239 284 321 305 286 296 307 298 248 218 226 241 255 271 285 293 294 293 293 290 287 285 285 287 289 291 292 291 289 287 283 281 279 278 277 276 275 275 273 270 268 265 264 264 264
272 273 271 272 273 273 275 276 273 268 264 263 261 255 256 266 269 270 275 271 226 165 152 147 145 140 139 151 165 171 180 186 182 178 180 177 176 187 207 235 244 263 306 310 296 301 312 306 247 207 261 285 299 307 309 310 310 309 308 304 299 297 295 294 294 294 292 290 290 288 286 286 284 281 279 278 276 275 274 272 271 269 266 264 262
272 273 271 271 272 273 274 275 271 267 264 262 261 256 253 263 267 266 273 255 161 152 152 151 149 145 140 143 153 163 173 183 185 183 181 177 174 184 203 222 237 253 272 280 284 296 304 298 294 306 309 310 315 317 318 319 318 317 316 310 306 303 298 294 292 289 287 285 285 285 285 285 284 282 280 277 276 275 274 275 274 272 270 268 264
273 272 270 271 271 270 269 268 265 263 259 258 257 250 245 255 262 260 254 196 163 155 151 151 151 148 139 136 144 157 165 171 175 177 178 178 177 180 187 196 222 257 256 247 254 276 283 281 282 288 295 303 312 317 321 323 320 317 314 310 305 299 295 292 289 285 284 283 281 280 280 279 276 276 276 276 276 275 275 275 274 272 271 272 271
269 268 269 270 269 268 265 262 259 257 254 255 256 250 243 246 240 193 168 173 166 156 154 158 157 151 143 139 145 155 159 156 156 157 161 165 163 154 145 142 124 33 14 337 273 275 278 277 278 283 291 299 305 310 313 314 314 313 312 310 306 300 295 289 283 280 280 282 281 279 279 278 277 278 280 281 279 276 275 275 274 271 270 269 269
269 268 270 272 273 273 272 268 268 267 261 256 254 250 246 237 193 160 160 169 166 160 160 161 157 150 146 144 147 154 155 151 147 148 150 155 161 164 165 176 284 344 356 350 296 271 274 279 283 289 294 293 286 283 288 300 310 314 314 314 311 305 298 288 283 285 287 288 288 287 286 285 284 285 288 287 283 278 275 274 272 270 269 267 266
262 258 257 262 267 272 272 268 266 267 269 271 267 256 234 196 176 171 173 172 167 166 167 164 158 152 148 148 153 158 161 160 157 156 161 167 181 209 235 289 337 331 319 298 287 290 294 295 295 299 302 298 290 281 280 296 314 320 321 320 316 311 307 303 300 299 295 291 288 286 285 286 286 286 287 285 283 282 280 277 273 270 268 266 265
253 251 253 257 257 257 258 258 255 253 261 275 279 255 188 173 174 180 186 180 172 169 170 168 165 158 153 155 157 157 157 159 160 162 168 175 176 175 169 145 101 286 281 288 295 305 318 320 312 313 321 327 326 317 310 317 326 326 322 319 315 312 311 308 304 300 296 293 291 290 290 290 288 288 289 287 284 285 285 281 277 274 271 265 262
268 267 268 265 261 260 262 263 264 263 258 239 175 165 169 172 173 179 193 187 176 171 168 163 159 156 154 155 155 151 147 149 152 154 160 167 168 164 168 189 240 285 311 319 324 336 341 327 318 327 341 349 347 339 332 329 327 322 316 312 308 306 305 303 301 299 296 296 297 297 297 295 292 291 290 287 285 285 285 283 280 279 276 268 262
275 272 270 266 263 265 267 266 265 263 236 156 145 146 147 154 162 166 170 171 170 169 163 156 154 155 153 148 149 153 153 150 147 147 149 152 154 155 161 137 50 43 32 17 6 343 327 327 336 352 356 351 340 331 325 323 319 314 310 308 306 303 300 298 297 296 295 295 295 294 293 292 290 288 285 282 281 281 281 281 281 281 278 272 267
270 267 266 264 261 262 265 266 264 246 172 151 152 139 121 117 125 135 144 151 155 157 154 149 150 156 156 148 143 144 144 138 136 138 137 128 105 102 109 88 69 57 37 15 1 341 336 345 353 354 349 341 333 326 322 318 312 308 308 308 306 303 299 296 293 292 291 291 290 289 288 286 284 283 281 278 278 277 276 276 276 275 273 270 267
264 262 259 257 257 255 256 259 252 188 151 148 150 142 129 118 111 112 122 133 137 136 135 134 132 134 137 135 131 128 125 124 127 122 102 84 87 102 108 94 76 57 24 3 349 340 353 3 358 348 341 333 327 322 317 312 309 308 307 305 302 302 301 299 297 294 292 289 286 284 283 282 280 279 278 276 275 273 272 272 270 268 268 266 263
259 259 256 253 252 249 246 243 214 168 155 152 151 150 144 131 120 114 114 119 122 122 120 120 118 116 114 114 116 119 119 115 106 93 85 90 105 117 124 120 101 57 23 6 345 341 0 6 353 338 330 322 318 316 314 313 313 314 313 309 305 304 302 301 300 297 293 290 286 283 282 280 279 277 275 273 271 269 267 267 266 265 263 261 260
258 256 252 249 248 245 237 215 178 161 153 148 151 152 145 134 129 125 122 121 120 119 117 116 116 116 116 116 117 120 117 107 96 91 93 101 114 127 148 233 219 7 8 355 342 349 1 357 341 330 323 318 319 321 320 321 323 322 319 314 309 304 302 301 299 296 292 290 287 284 282 281 279 277 275 272 270 267 264 263 263 261 258 256 255
255 254 252 251 247 238 216 178 160 152 145 143 146 145 140 135 131 128 126 125 121 118 119 123 125 126 126 127 126 123 117 109 102 98 97 97 96 78 17 354 358 11 360 350 351 359 357 344 332 327 323 322 327 328 325 325 327 325 321 316 310 307 305 302 298 295 292 289 287 286 285 284 281 279 277 274 270 266 264 262 260 258 256 255 255
250 250 251 247 233 210 181 161 155 150 145 145 146 143 139 135 129 126 128 128 125 123 127 132 137 139 139 138 136 128 121 118 115 109 103 96 78 48 25 17 18 19 11 3 3 360 348 335 328 325 324 326 328 325 323 326 328 325 320 316 311 308 306 302 299 297 293 291 291 290 288 286 283 281 278 274 270 267 264 262 261 258 256 255 256
241 240 236 222 198 178 161 153 151 149 147 147 147 142 136 131 129 132 135 134 131 133 139 145 149 151 152 151 146 136 131 133 132 124 116 101 68 40 25 17 15 13 7 2 0 351 339 332 329 327 327 328 325 322 323 327 328 324 320 317 314 311 308 305 302 299 296 293 292 291 289 287 284 282 279 275 271 269 265 262 261 259 257 256 254
231 229 218 190 165 151 143 142 144 145 145 145 144 141 137 137 140 143 143 141 140 143 151 158 160 160 159 157 153 150 152 155 150 142 150 149 65 32 26 23 17 8 2 359 357 348 339 335 333 333 331 329 327 326 328 330 328 325 322 320 318 317 315 310 306 303 300 296 294 293 291 289 286 284 281 277 273 270 267 264 261 260 258 257 253
218 217 202 172 147 137 136 137 138 139 139 140 141 143 147 153 156 153 148 146 150 160 170 174 176 175 169 162 158 160 171 184 192 226 282 152 105 58 38 29 14 4 4 4 357 346 339 335 336 336 333 331 332 335 336 334 331 329 327 325 323 320 318 314 310 306 303 300 298 297 294 292 290 289 285 280 276 272 270 268 265 260 258 255 252
166 166 158 146 136 134 136 136 136 136 138 140 145 151 157 162 163 161 158 160 170 182 184 179 178 179 177 172 167 171 198 225 220 194 78 76 77 55 34 22 10 9 14 7 353 343 338 338 339 338 335 335 337 336 336 337 336 333 331 328 324 319 317 315 313 310 307 305 303 301 298 296 295 292 287 282 279 276 272 270 268 263 259 256 253
115 122 127 129 130 132 134 135 137 140 142 145 151 158 163 167 170 168 169 175 183 183 168 150 145 149 155 159 157 146 135 165 154 115 79 67 63 47 28 16 15 20 14 358 347 341 339 340 340 337 335 337 338 337 338 341 341 337 332 329 325 320 318 317 316 314 313 310 308 305 303 301 299 295 290 286 284 281 276 272 269 264 259 255 252
103 109 115 121 124 127 131 136 140 143 145 151 159 165 168 171 169 165 172 183 179 151 129 123 124 129 134 137 133 115 87 77 91 95 77 62 58 41 21 10 15 20 9 354 344 341 340 339 338 333 333 338 342 342 343 344 341 337 333 331 327 324 322 321 320 320 319 318 316 313 311 309 307 304 301 299 296 292 285 279 273 266 259 254 249
104 108 113 117 120 125 132 138 143 149 157 164 170 171 170 170 166 165 174 176 151 123 113 110 107 108 109 112 117 111 88 74 85 97 80 55 38 25 16 11 14 17 5 349 337 338 341 339 333 331 337 345 348 345 343 342 340 335 333 332 331 329 327 325 326 327 326 326 325 322 320 320 320 317 315 313 309 305 302 295 283 271 262 254 247
107 110 113 115 120 128 136 141 145 153 161 164 159 152 148 144 139 134 129 119 111 108 107 103 98 94 92 98 108 108 92 83 91 93 76 51 31 34 26 11 5 12 5 348 338 340 341 333 327 331 341 350 353 349 344 343 341 336 333 332 333 333 332 332 334 335 335 334 333 331 330 331 331 329 327 326 322 321 323 316 293 271 261 256 249
107 108 110 113 118 122 122 117 114 117 119 115 109 108 106 102 99 99 97 94 95 99 102 105 107 104 100 102 109 108 102 102 98 83 59 9 351 23 18 353 343 1 4 348 339 338 336 329 331 337 341 346 351 351 348 346 345 342 337 335 335 337 339 340 342 345 345 343 343 342 339 338 339 338 339 341 337 332 335 334 311 275 259 253 246
93 94 93 93 93 91 90 89 90 92 94 94 92 92 93 94 96 98 98 96 97 100 102 105 109 109 106 106 109 104 100 98 92 75 32 348 344 360 345 324 321 335 357 347 339 336 333 330 336 343 341 340 345 349 349 348 348 346 343 341 341 344 348 350 352 353 353 352 352 350 347 346 348 350 353 357 352 343 339 340 337 313 270 248 234
81 82 83 84 83 84 86 88 90 90 90 91 92 93 95 99 101 101 100 98 98 101 104 104 104 104 101 96 99 101 95 84 78 65 10 350 3 2 331 322 322 338 9 355 341 337 334 331 337 346 346 342 342 345 348 350 350 348 348 349 350 353 356 358 358 358 359 358 359 358 356 358 1 3 6 6 359 353 357 357 345 336 331 255 214
81 80 80 81 82 84 86 88 90 91 91 92 95 98 100 101 101 100 100 99 98 99 100 99 100 103 99 92 94 99 91 82 76 50 360 9 20 356 333 328 333 352 6 352 341 341 338 333 339 350 352 348 346 347 348 350 351 351 352 354 356 358 1 2 2 3 4 5 7 9 9 11 12 13 15 15 9 6 17 22 10 6 61 115 154
82 81 82 83 83 85 89 92 94 96 97 97 97 97 96 96 96 96 97 98 97 98 98 97 97 100 97 92 89 83 79 82 80 25 349 359 357 342 333 332 336 343 351 350 348 346 338 332 341 352 353 351 350 349 348 350 352 354 355 356 357 360 3 5 5 6 7 9 14 17 19 22 24 22 22 24 24 25 32 37 42 70 94 107 127
76 77 80 83 84 86 90 94 96 99 101 99 97 95 93 92 92 93 95 95 92 91 91 92 93 92 91 88 82 71 71 79 76 16 348 342 335 333 335 335 335 343 357 360 353 345 336 334 344 352 353 353 352 349 347 350 353 354 357 358 358 360 4 8 9 9 9 12 17 20 23 28 30 29 29 32 34 39 46 53 62 81 94 100 109
72 74 76 79 83 85 87 89 91 93 96 96 95 94 93 92 90 90 90 89 85 83 84 86 84 81 81 83 80 71 70 72 55 15 351 338 333 334 337 336 338 347 355 352 346 341 337 339 345 349 352 355 353 347 346 350 353 355 358 1 360 360 4 8 11 11 12 15 19 24 27 31 32 32 33 36 40 45 52 58 66 78 89 96 103